This is the latest recevied weather packets stored in our database for station/object N9BID. If no packets are shown the sender has not sent any weather packets the latest 10 day(s).
| Time | Temp. | Humidity | Pressure | Rain* | Wind** | Luminosity | Snow |
|---|---|---|---|---|---|---|---|
| 1777917366 | 18.89° C | 39% | 988.3 hPa | 0 mm | - | 526 W/m² | - |
| 1777917063 | 18.89° C | 40% | 988.1 hPa | 0 mm | - | 463 W/m² | - |
| 1777916761 | 18.33° C | 40% | 988 hPa | 0 mm | - | 665 W/m² | - |
| 1777916457 | 18.89° C | 38% | 988.2 hPa | 0 mm | - | 623 W/m² | - |
| 1777916154 | 18.33° C | 40% | 988.2 hPa | 0 mm | - | 476 W/m² | - |
| 1777915852 | 18.89° C | 46% | 988.2 hPa | 0 mm | - | 629 W/m² | - |
| 1777915547 | 18.89° C | 48% | 988.1 hPa | 0 mm | - | 451 W/m² | - |
| 1777915244 | 18.33° C | 52% | 988.2 hPa | 0 mm | - | 587 W/m² | - |
| 1777914941 | 18.33° C | 49% | 988 hPa | 0 mm | - | 601 W/m² | - |
| 1777914638 | 18.89° C | 51% | 988.1 hPa | 0 mm | - | 620 W/m² | - |
| 1777914334 | 18.89° C | 50% | 988 hPa | 0 mm | - | 607 W/m² | - |
| 1777914032 | 18.33° C | 54% | 988 hPa | 0 mm | - | 620 W/m² | - |
| 1777913727 | 18.89° C | 51% | 988.2 hPa | 0 mm | - | 633 W/m² | - |
| 1777913424 | 18.33° C | 49% | 987.8 hPa | 0 mm | - | 612 W/m² | - |
| 1777913121 | 18.89° C | 53% | 988 hPa | 0 mm | - | 594 W/m² | - |
| 1777912817 | 18.89° C | 52% | 988.1 hPa | 0 mm | - | 649 W/m² | - |
| 1777912513 | 18.33° C | 52% | 988.1 hPa | 0 mm | - | 671 W/m² | - |
| 1777912210 | 17.78° C | 50% | 988 hPa | 0 mm | - | 703 W/m² | - |
| 1777911906 | 18.33° C | 52% | 988.1 hPa | 0 mm | - | 639 W/m² | - |
| 1777911603 | 18.33° C | 51% | 987.9 hPa | 0 mm | - | 609 W/m² | - |
| 1777911298 | 18.33° C | 53% | 988.1 hPa | 0 mm | - | 680 W/m² | - |
| 1777910996 | 18.33° C | 53% | 988.1 hPa | 0 mm | - | 695 W/m² | - |
| 1777910694 | 17.78° C | 53% | 987.8 hPa | 0 mm | - | 636 W/m² | - |
| 1777910390 | 17.78° C | 52% | 988 hPa | 0 mm | - | 485 W/m² | - |
| 1777910087 | 17.78° C | 53% | 987.7 hPa | 0 mm | - | 528 W/m² | - |
* Rain latest hour (hover to see other rain measurements)
** Current wind speed in m/s (hover to see current wind gust speed)